weather.gov     
National Weather Service

Regional Weather Roundup
NWS Homepage
This page is being discontinued on March 12, 2014.
The same data is available at this site. Please update your bookmarks.
Thank you, and we apologize for the inconvenience.
Please send an email to SR-SRH.Webmaster@noaa.gov with any concerns.


Current Version
Previous Version:    01  02  03  04  05  06  07  08  09  
[Printable]
379
ASUS42 KTBW 260710
RWRFL
FLORIDA REGIONAL WEATHER ROUNDUP
NATIONAL WEATHER SERVICE TAMPA BAY RUSKIN FL
300 AM EDT SUN OCT 26 2014

NOTE: "FAIR" INDICATES FEW OR NO CLOUDS BELOW 12,000 FEET WITH NO
SIGNIFICANT WEATHER AND/OR OBSTRUCTIONS TO VISIBILITY.


FLZ001>010-012>015-112-114-115-260800-
PANHANDLE FLORIDA

CITY           SKY/WX    TMP DP  RH WIND       PRES   REMARKS
PENSACOLA      CLEAR     59  52  77 CALM      30.03S
PENSACOLA NAS  CLEAR     54  54 100 CALM      30.03F
MILTON NAS     CLEAR     54  51  90 CALM      30.04S
CRESTVIEW      CLEAR     48  47  96 CALM      30.04F
DUKE FIELD     FAIR      50  48  93 CALM      30.02F
VALPARAISO     CLEAR     57  51  78 N6        30.03S
MARY ESTHER    CLEAR     54  48  79 N5        30.02S
TRI COUNTY     FAIR      52  51  97 CALM      30.03S
PANAMA CITY    FAIR      54  49  83 CALM      30.01F
TYNDALL AFB    CLEAR     60  53  76 N5        30.02S
APALACHICOLA   CLEAR     58  49  72 CALM      30.01S

STATION/POSITION SKY/WX   TEMP    WIND        PRES    WAVE   SWELL
                          AIR SEA DIR/SP/G            HT/PER HT/PER
                          (F)     (DEG/KT/KT) (MB)    (FT/S) (FT/S)
30.1N   87.6W              73 77  340/  6/  8 1016.9S   1
29.2N   88.2W              74 78  350/  8/ 12 1017.8F   2/ 4   2/ 4
28.8N   86.0W              75 79   20/ 12/ 14 1016.3    2/ 4
PANAMA CITY BEAC           62 75  360/  5/  7 1016.4F
CAPE SAN BLAS    NOT AVBL
TOWER C                    72     360/ 11/ 12 1015.9F
28.5N   84.5W              75 80   30/ 10/ 12 1015.6F   2/ 3

$$
FLZ011-016>038-118-127-128-134-139-239-260800-
NORTH FLORIDA

CITY           SKY/WX    TMP DP  RH WIND       PRES   REMARKS
MARIANNA       LGT RAIN  53  52  96 CALM      30.02S
TALLAHASSEE    CLEAR     49  43  80 CALM      30.00F
PERRY          CLEAR     50  48  93 CALM      30.00S
CROSS CITY       N/A     48  46  93 CALM      29.99F
LAKE CITY      FAIR      48  48 100 CALM      29.99F
GAINESVILLE    CLEAR     48  47  96 CALM      29.99F
MAYPORT NAS    CLEAR     62  58  86 W6        29.97F
JACKSONVILLE   CLEAR     52  51  97 W7        29.97F
JAX NAS        CLEAR     60  52  74 W7        29.98F
JAX CRAIG      CLEAR     52  49  89 CALM      29.97F
JAX CECIL      CLEAR     46  46 100 CALM      29.98F
FERNANDINA BEA FAIR      61  57  88 CALM      29.96S
ST AUGUSTINE   CLEAR     56  51  84 CALM      29.98F

STATION/POSITION SKY/WX   TEMP    WIND        PRES    WAVE   SWELL
                          AIR SEA DIR/SP/G            HT/PER HT/PER
                          (F)     (DEG/KT/KT) (MB)    (FT/S) (FT/S)
SHELL POINT                60     360/  5/  8   N/A
KEATON BEACH               58      30/  3/  5 1015.7F
CEDAR KEY                  62      50/  4/  6 1016.0S
FERNANDINA                 62 73  230/  4/  5 1014.3S
30.7N   81.3W                 75                N/A     1/10
MAYPORT                    63 75  240/  4/  5   N/A
31.4N   80.9W              71 74  270/ 12/ 14 1014.4F   1/ 9   2/ 9
ST AUGUSTINE               61     280/  7/  7 1015.4F

$$
FLZ040-043>046-052-053-057-058-063-144-260800-
INTERIOR CENTRAL FLORIDA

CITY           SKY/WX    TMP DP  RH WIND       PRES   REMARKS
OCALA          CLEAR     48  45  87 N3        29.99S
THE VILLAGES     N/A     54  54 100 NW3       29.89S
LEESBURG       CLEAR     57  53  86 CALM      29.98F
ORLANDO EXEC   CLEAR     63  58  83 CALM      29.97F
ORLANDO INTL   CLEAR     60  56  86 CALM      29.97F
WINTER HAVEN   CLEAR     60  57  89 NW3       29.99F
LAKELAND       CLEAR     55  54  94 CALM      29.99S
BARTOW         FAIR      55  54  94 CALM      29.99F
OKEECHOBEE       N/A     61  59  94 MISG        N/A

$$
FLZ041-047-054-059-064-141-147-260800-
EAST CENTRAL FLORIDA

CITY           SKY/WX    TMP DP  RH WIND       PRES   REMARKS
DAYTONA BEACH  CLEAR     56  53  90 CALM      29.97F
DELAND         SUNNY     54  50  87 CALM      29.98F
JFK SPACE CTR  CLEAR     58  54  89 W5        29.95F
CAPE CANAVERAL CLEAR     61  54  77 N5        29.95S
PATRICK AFB    CLEAR     69  55  61 N9        29.95F
MELBOURNE      CLEAR     63  56  78 NW5       29.95F
VERO BEACH     CLEAR     64  59  83 NW7       29.94F
FT PIERCE      CLEAR     66  61  84 NW6       29.94F
STUART         CLEAR     72  61  68 N10G18    29.94S

STATION/POSITION SKY/WX   TEMP    WIND        PRES    WAVE   SWELL
                          AIR SEA DIR/SP/G            HT/PER HT/PER
                          (F)     (DEG/KT/KT) (MB)    (FT/S) (FT/S)
28.5N   80.2W              73 80  360/ 10/ 14 1014.5F
28.9N   78.5W              75 81  360/ 12/ 14 1013.4F   3/ 5   2/ 6
TRIDENT PIER               68 78  330/  4/  5 1013.9F
28.4N   80.5W                 77                N/A     2/ 7
27.6N   80.2W                 79                N/A     4/ 5   2/11

$$
FLZ050-056-061-142-242-148-248-149-249-151-251-155-255-
160-260-260800-
WEST CENTRAL FLORIDA

CITY           SKY/WX    TMP DP  RH WIND       PRES   REMARKS
CRYSTAL RIVER  FAIR      52  50  93 CALM      29.99S
INVERNESS      FAIR      50  50 100 CALM      29.99S FOG
BROOKSVILLE    CLEAR     49  48  97 CALM      29.99F
ZEPHYRHILLS    FAIR      50  50 100 CALM      29.99F
CLEARWATER     CLEAR     65  59  81 NE5       29.98F
TAMPA INTL     CLEAR     62  55  77 N5        29.99F
PLANT CITY     CLEAR     57 N/A N/A CALM      30.00F
MACDILL AFB    CLEAR     57  55  93 E3        29.98F
ST PETERSBURG  CLEAR     68  60  75 NE6       29.97F
SARASOTA       CLEAR     63  57  81 NE6       29.97F
VENICE           N/A     61  57  88 NE9       29.98F

STATION/POSITION SKY/WX   TEMP    WIND        PRES    WAVE   SWELL
                          AIR SEA DIR/SP/G            HT/PER HT/PER
                          (F)     (DEG/KT/KT) (MB)    (FT/S) (FT/S)
CEDAR KEY                  62      50/  4/  6 1016.0S
28.5N   84.5W              75 80   30/ 10/ 12 1015.6F   2/ 3
27.3N   84.3W                 81                N/A     3/ 4
CLEARWATER BEACH NOT AVBL
MIDDLE TAMPA BAY           69      80/ 11/ 12 1015.6F
VENICE                     63 77   30/  9/ 12 1014.8F

$$
FLZ066-069-070-075>078-162-262-165-265-260800-
SOUTHWEST FLORIDA AND KEYS

CITY           SKY/WX    TMP DP  RH WIND       PRES   REMARKS
PUNTA GORDA    CLEAR     62  56  80 N3        29.99F
FT MYERS       CLEAR     62  58  86 N5        29.96S
SOUTHWEST INTL CLEAR     62  57  83 N6        29.97S
NAPLES         CLEAR     67  59  75 N7        29.95F
MARATHON       CLEAR     74  67  78 N6        29.91F
KEY WEST NAS   CLEAR     74  64  71 NE5       29.92F
KEY WEST INTL  CLEAR     74  65  73 NE5       29.93S

STATION/POSITION SKY/WX   TEMP    WIND        PRES    WAVE   SWELL
                          AIR SEA DIR/SP/G            HT/PER HT/PER
                          (F)     (DEG/KT/KT) (MB)    (FT/S) (FT/S)
VENICE                     63 77   30/  9/ 12 1014.8F
NAPLES                     67 80   20/  6/  8 1014.8F
26.0N   85.6W              75 80   20/ 10/ 14 1015.8R   3/ 5   2/ 5
DRY TORTUGAS               78      20/ 10/ 12 1013.7F
NW FL BAY                  74      30/ 10/ 11 1013.7F
SAND KEY                   76      50/ 13/ 15 1013.2F
SOMBRERO KEY               75      10/ 12/ 13 1013.4F
LONG KEY                   74 76   10/ 12/ 14 1013.6F
MOLASSES REEF              74 81  360/ 16/ 18 1012.3F

$$
FLZ067-068-071>074-168-172>174-260800-
SOUTHEAST FLORIDA

CITY           SKY/WX    TMP DP  RH WIND       PRES   REMARKS
W PALM BEACH   PTCLDY    68  65  90 NW7       29.91S
FT LAUDER-EXEC PTCLDY    71  63  75 NW6       29.91F
FT LAUDERDALE  PTCLDY    72  65  78 N8        29.91F
POMPANO BEACH  PTCLDY    72  64  76 NW9       29.91F
PEMBROKE PINES CLEAR     71  64  78 NW9       29.92F
OPA LOCKA      PTCLDY    71  64  78 N9        29.92F
MIAMI          PTCLDY    72  64  76 N7        29.91F
WEST KENDALL   CLEAR     71  65  81 N8        29.92F
HOMESTEAD      CLEAR     68  64  86 NW7       29.91F

STATION/POSITION SKY/WX   TEMP    WIND        PRES    WAVE   SWELL
                          AIR SEA DIR/SP/G            HT/PER HT/PER
                          (F)     (DEG/KT/KT) (MB)    (FT/S) (FT/S)
PORT EVERGLADES            72     310/  9/ 14 1012.6
VIRGINIA KEY               73 80  350/  5/ 10 1013.0F
LAKE WORTH                 70 78  300/  7/  9 1012.5F
FOWEY ROCKS                75 80  350/ 18/ 19 1012.6F
SETTLEMENT POINT           76      20/ 14/ 15 1013.1F

$$





U.S. Dept. of Commerce
NOAA National Weather Service
1325 East West Highway
Silver Spring, MD 20910
E-mail: w-nws.webmaster@noaa.gov
Page last modified: May 16, 2007
NATIONAL WEATHER SERVICE: for Safety, for Work, for Fun - FOR LIFE